SXM-7

Last updated on Fri Feb 06 2026 00:02:54 GMT+0000 (Coordinated Universal Time)

1 47240U 20096A 26036.11120242 -.00000208 00000+0 00000+0 0 9993 2 47240 0.0216 109.5726 0004037 13.8320 326.6683 1.00270088 6117
UTC large
Height (km)
Speed (km/s)
/
Latitude / Longitude
Inclination (degrees)
Orbital Period (minutes)
Azimuth
Elevation
Range (km)
Doppler Factor

Next 0 passes for location: London (51.5072 / 0.1276)

Sorry there are no passes over London.